Notices

What's New in latest Release from April 7th, 2021:

- Updated Glossary, including Speed of Maximum Gust, and Total Hourly Precipitation

- Updated national and regional climate services offices contacts and prices information

- Addition of station inventory lists for 1981-2010, 1971-2000, and 1961-1990 Normals.

If you haven't already, please take our survey and provide feedback about our website: https://eccc.sondage-survey.ca/f/LanguageSelection.aspx?s=442ca660-fcf1-47c0-95a9-59707d6fd709

Hourly Data Report for July 28, 2018

OTTAWA INTL A
ONTARIO
Current Station Operator: NAVCAN

45°19'00.000" N
75°40'00.000" W
114.90 m
6106001
71628
YOW

Download Data

Hourly Data (July 2018)
Hourly Data Report for July 28, 2018
TIME
LST
Temp Definition
°C
Dew Point Definition
°C
Rel Hum Definition
%
Precip. Amount Definition
mm

Wind Dir Definition
10's deg

Wind Spd Definition
km/h
Visibility Definition
km
Stn Press Definition
kPa
Hmdx Definition


Wind Chill Definition


Weather Definition


00:00 18.8 15.8 82   20 8 24.1 99.98     LegendNANA
01:00 18.5 15.8 84   24 8 24.1 99.97     Mostly Cloudy
02:00 18.1 16.0 88   21 7 24.1 99.95     LegendNANA
03:00 17.1 15.5 90   18 13 24.1 99.96     LegendNANA
04:00 16.1 14.9 93   18 8 24.1 99.95     Mainly Clear
05:00 16.4 15.2 92   20 11 24.1 99.99     LegendNANA
06:00 17.2 15.9 92   17 4 24.1 100.04     LegendNANA
07:00 18.3 16.6 90   23 6 24.1 100.07     Mostly Cloudy
08:00 20.6 16.2 76   27 10 24.1 100.09 25   LegendNANA
09:00 21.8 15.6 67   28 11 24.1 100.10 26   LegendNANA
10:00 21.9 16.0 69   27 12 24.1 100.15 27   Mostly Cloudy
11:00 22.6 14.4 59   31 17 24.1 100.14 26   LegendNANA
12:00 22.9 15.7 63   29 7 24.1 100.08 27   LegendNANA
13:00 24.4 14.3 53   24 13 24.1 100.03 28   Mainly Clear
14:00 23.9 14.7 56   21 5 24.1 99.99 28   LegendNANA
15:00 26.7 14.9 48   23 13 24.1 99.93 31   LegendNANA
16:00 19.0 16.9 87   22 26 16.1 100.05     Thunderstorms,Moderate Rain Showers
17:00 18.9 17.3 90   24 7 24.1 100.07     Rain Showers
18:00 19.9 17.6 86   36 2 24.1 100.06     LegendNANA
19:00 18.8 17.9 94   18 9 24.1 100.09     Mostly Cloudy
20:00 18.4 17.2 93   25 13 16.1 100.13     Rain Showers
21:00 17.3 16.5 95   22 8 24.1 100.19     LegendNANA
22:00 17.2 16.2 94   26 6 24.1 100.20     Mainly Clear
23:00 17.7 16.0 90   25 5 24.1 100.21     LegendNANA

Notes on Data Quality.

Legend

  • E = Estimated
  • M = Missing
  • NA = Not Available*
  • [empty] = Indicates an unobserved value
Date modified: